Zurück zum Katalog

SL-16 DEB

AktivLEO
NORAD 39720·DEBRIS·🇷🇺 Russia

Gestartet Dec 25, 1992 von Baikonur Cosmodrome

Loading…

Nächste Überflüge (nächste 24 Stunden)

TLE

AlterndSource: Space-Track

Epoche: Sep 10, 2026, 07:29 UTC

1 39720U 92093KL  26253.31199286  .00001723  00000-0  37750-3 0  9999
2 39720  70.7834 123.1957 0021830  73.7702 286.5841 14.59070799654831

Verfolge SL-16 DEB in Echtzeit mit AllMySat

Download on the App Store